This is the latest recevied weather packets stored in our database for station/object DK6GC-11. If no packets are shown the sender has not sent any weather packets the latest 10 day(s).
| Time | Temp. | Humidity | Pressure | Rain* | Wind** | Luminosity | Snow |
|---|---|---|---|---|---|---|---|
| 1777390393 | 20° C | 48% | 1017.4 hPa | - | - | - | - |
| 1777389498 | 20° C | 48% | 1017.4 hPa | - | - | - | - |
| 1777388598 | 20.56° C | 47% | 1017.6 hPa | - | - | - | - |
| 1777387698 | 20.56° C | 47% | 1017.6 hPa | - | - | - | - |
| 1777386798 | 20° C | 47% | 1017.6 hPa | - | - | - | - |
| 1777385897 | 20° C | 47% | 1017.7 hPa | - | - | - | - |
| 1777384997 | 20.56° C | 48% | 1017.8 hPa | - | - | - | - |
| 1777384096 | 20.56° C | 47% | 1017.8 hPa | - | - | - | - |
| 1777383196 | 20.56° C | 47% | 1017.7 hPa | - | - | - | - |
| 1777382296 | 20.56° C | 48% | 1017.8 hPa | - | - | - | - |
| 1777381396 | 20.56° C | 48% | 1017.6 hPa | - | - | - | - |
| 1777380495 | 20.56° C | 47% | 1017.7 hPa | - | - | - | - |
| 1777379595 | 20.56° C | 47% | 1017.8 hPa | - | - | - | - |
| 1777378695 | 20.56° C | 47% | 1017.8 hPa | - | - | - | - |
| 1777377795 | 21.11° C | 46% | 1017.8 hPa | - | - | - | - |
| 1777376895 | 21.11° C | 46% | 1017.9 hPa | - | - | - | - |
| 1777375994 | 21.11° C | 46% | 1017.9 hPa | - | - | - | - |
| 1777375094 | 21.11° C | 46% | 1018.1 hPa | - | - | - | - |
| 1777374194 | 21.11° C | 46% | 1018.1 hPa | - | - | - | - |
| 1777373293 | 21.67° C | 45% | 1018.3 hPa | - | - | - | - |
| 1777372393 | 21.67° C | 44% | 1018.3 hPa | - | - | - | - |
| 1777371492 | 21.67° C | 44% | 1018.4 hPa | - | - | - | - |
| 1777370592 | 21.67° C | 45% | 1018.4 hPa | - | - | - | - |
| 1777369692 | 21.11° C | 45% | 1018.4 hPa | - | - | - | - |
| 1777368792 | 21.11° C | 46% | 1018.4 hPa | - | - | - | - |
* Rain since midnight (hover to see other rain measurements)
** Current wind speed in m/s (hover to see current wind gust speed)